Dewpoint
69 68 69 61 53 53 51 52 54 54 55 57 60 57 57 60 55 53 68 68 68 69 73 73 73 73 73 74 74 73 73 73 73 73 73 73 72 72 72 71 71 71 72 71 71 71 72 72 72
67 67 67 59 50 46 50 53 51 53 55 58 58 59 58 58 64 66 66 69 69 69 71 72 73 74 73 73 74 73 72 72 72 71 71 71 72 72 72 72 72 71 71 71 71 72 72 71 72
68 69 59 54 51 48 49 52 52 55 57 57 57 60 59 60 65 66 69 69 69 71 71 72 74 74 73 73 73 73 72 72 72 72 71 71 71 71 70 69 70 71 71 71 72 72 72 71 72
68 65 59 51 49 52 52 53 56 56 57 58 58 57 62 65 66 67 70 69 68 71 71 73 73 71 73 72 72 73 72 72 72 72 69 70 72 71 71 71 70 71 70 71 72 72 72 72 71
67 59 52 50 50 53 56 56 57 56 56 57 57 58 61 65 67 69 70 69 67 69 70 72 72 69 71 69 68 70 68 72 70 72 71 71 70 70 70 70 71 71 71 71 71 72 72 72 72
58 56 49 47 49 52 54 57 57 56 58 59 58 59 62 67 68 69 69 68 68 69 69 71 71 70 70 71 69 69 68 72 70 71 71 70 70 68 69 71 72 72 72 72 72 71 70 70 71
56 53 50 50 50 50 52 56 55 54 56 57 60 57 63 66 68 69 69 68 68 70 70 70 70 70 71 70 70 70 68 70 70 71 71 70 68 68 69 70 72 72 71 71 71 71 71 70 68
58 56 50 50 50 48 54 55 56 54 57 60 60 55 57 65 68 69 69 68 69 69 69 70 70 70 71 71 71 70 68 70 71 70 70 69 67 67 65 70 71 72 70 70 71 71 71 71 70
58 52 49 48 51 50 55 53 55 59 58 59 59 60 62 66 68 68 68 69 68 69 69 70 69 70 70 71 71 70 71 70 71 70 70 69 69 67 68 69 71 71 70 70 70 71 71 71 70
55 51 49 52 52 52 54 54 55 57 58 59 60 63 65 67 67 66 66 66 66 68 69 70 70 69 69 70 71 70 70 70 71 70 70 69 70 69 68 71 72 70 70 70 71 71 71 71 69
54 49 50 50 53 53 54 55 54 54 56 57 58 63 65 66 66 65 65 65 65 67 67 69 70 70 68 69 70 70 69 68 70 69 69 69 69 70 66 69 68 70 73 71 71 70 70 72 69
46 49 51 51 56 54 55 55 54 54 54 57 59 63 65 65 64 64 64 65 66 67 67 67 69 70 70 69 70 70 70 70 69 69 69 69 68 67 68 69 69 70 71 70 69 68 69 67 67
45 44 48 53 55 55 55 54 54 55 57 59 62 63 64 64 64 64 65 66 66 65 66 66 69 70 69 69 69 70 69 68 67 68 69 69 67 67 69 69 69 69 71 70 70 69 68 68 69
39 44 45 51 55 55 54 55 56 56 59 60 62 62 63 63 63 64 65 65 65 66 66 67 68 68 68 69 69 69 68 67 67 68 69 68 67 68 68 68 68 69 69 70 69 69 68 67 65
43 42 43 48 52 54 56 53 53 57 59 59 60 61 62 63 63 63 64 65 65 66 66 67 68 69 69 70 69 69 68 67 66 67 68 69 69 69 69 69 69 68 70 70 70 70 68 62 63
42 43 33 38 52 54 53 47 51 58 58 57 59 60 61 62 63 64 64 65 65 66 67 68 68 69 70 70 70 68 67 67 68 68 68 68 69 69 69 68 69 71 70 70 70 69 62 63 67
40 31 30 33 49 53 52 46 53 59 58 57 58 59 60 60 62 63 63 64 65 66 67 68 69 69 70 70 69 68 67 67 67 68 68 68 68 68 69 69 71 71 70 70 68 65 64 66 67
29 27 27 28 35 45 46 48 52 58 58 57 57 58 59 60 60 61 62 63 65 66 67 68 69 69 69 69 69 67 67 67 66 66 67 69 69 69 69 69 71 71 70 69 67 66 65 67 65
28 28 27 29 31 40 45 48 51 55 57 57 56 57 57 59 59 61 61 62 64 66 67 68 69 69 69 68 66 66 65 65 66 66 67 69 69 70 70 69 71 71 69 70 69 67 68 67 67
25 25 25 27 46 47 48 45 48 53 55 55 55 55 56 57 59 60 61 62 63 65 67 68 68 69 68 67 67 67 66 65 65 65 68 69 69 70 70 71 71 71 70 71 69 69 67 67 67
23 24 25 25 34 50 43 38 40 50 55 55 55 54 55 57 57 58 60 62 63 65 66 68 68 69 68 68 67 67 67 67 66 66 67 68 69 70 70 71 72 71 70 68 71 70 69 65 66
22 26 26 27 32 28 43 28 40 44 47 54 54 54 54 57 57 58 60 62 63 65 67 68 69 69 69 68 66 66 63 62 64 67 67 67 69 70 70 71 71 69 67 67 70 71 69 66 66
23 26 27 34 36 36 33 32 27 44 40 44 53 54 53 55 55 56 59 61 63 65 66 67 68 69 68 68 65 66 64 63 66 66 67 68 70 71 70 71 70 69 67 69 71 71 71 69 68
25 24 25 30 31 22 31 30 22 30 37 42 46 54 54 54 55 57 59 61 63 65 66 67 68 68 68 68 66 66 65 66 65 65 65 67 67 68 70 69 71 71 70 70 70 71 70 70 70
24 22 20 19 19 17 30 32 26 34 39 43 45 47 54 55 55 57 59 60 62 64 65 66 67 67 68 67 66 67 66 67 66 66 65 65 66 66 69 70 71 70 71 70 71 72 71 70 70
23 21 19 19 18 18 27 20 24 34 42 47 49 48 50 55 54 55 58 60 62 64 65 65 66 66 67 67 66 67 67 66 65 66 66 65 65 66 69 70 69 70 72 71 72 70 70 70 70
23 21 22 20 20 18 19 22 28 41 46 46 44 48 49 50 54 55 58 60 62 63 65 65 65 66 66 66 66 67 67 67 65 66 66 65 68 67 69 70 70 70 70 71 71 71 71 71 70
21 22 17 20 18 16 18 21 23 43 49 50 47 46 47 51 53 54 57 59 61 62 63 65 66 65 65 66 66 65 66 67 67 67 67 66 68 68 67 68 70 70 70 70 71 70 70 71 69
21 20 20 20 19 17 17 21 46 49 51 51 52 53 53 52 49 54 56 59 60 62 63 64 66 65 65 65 66 65 65 65 67 66 67 67 67 68 68 67 68 68 69 70 71 70 70 70 69
24 24 22 20 24 22 22 24 50 52 52 53 53 54 55 57 58 54 56 59 61 62 63 64 65 65 65 65 66 66 65 65 64 65 66 68 67 69 69 69 69 70 69 70 70 68 68 70 69
Wind_Speed
5 3 0 1 1 2 4 3 3 5 3 3 3 2 2 2 1 1 4 10 18 22 18 18 17 18 17 16 17 16 15 14 14 13 13 12 13 13 13 12 12 9 7 6 6 5 6 5 5
4 2 1 2 1 6 3 4 5 3 2 5 3 2 1 2 2 5 13 9 21 21 20 18 18 18 18 16 16 19 14 13 12 11 10 10 12 12 11 11 10 7 6 5 6 6 5 6 5
2 0 1 2 2 4 6 3 3 3 3 2 3 5 2 2 3 13 5 16 20 19 17 18 18 18 17 14 16 17 16 10 9 10 9 7 8 10 10 9 9 8 6 6 6 7 7 6 6
1 1 3 3 4 3 3 5 4 3 3 3 4 4 4 4 8 6 13 18 20 17 17 18 20 21 17 15 13 13 8 11 7 10 12 11 9 8 8 9 9 9 8 8 8 8 9 8 8
1 1 4 4 3 1 1 2 1 1 2 1 3 4 3 3 3 12 15 18 20 18 16 17 20 24 23 16 14 10 8 2 9 11 14 11 8 8 3 8 9 10 9 8 9 9 9 9 10
2 2 4 7 6 3 2 4 2 3 2 4 4 6 4 2 9 13 15 17 17 17 16 16 19 22 20 16 11 6 10 10 10 11 11 10 10 11 8 9 10 10 9 9 9 8 8 8 10
3 3 2 2 5 2 2 5 3 2 3 3 7 4 3 7 7 13 15 15 15 14 14 14 17 21 21 17 15 14 18 14 9 11 12 10 9 10 9 7 8 8 8 8 8 8 7 7 7
2 1 1 1 1 3 3 6 3 2 2 8 4 2 3 11 13 13 13 14 13 11 10 11 14 23 24 23 20 16 21 18 13 10 10 8 8 9 8 7 6 8 7 8 8 8 8 8 7
1 1 1 1 4 3 2 3 3 2 9 4 4 2 3 20 18 16 14 11 13 8 7 6 12 19 25 22 20 22 21 17 13 9 8 8 5 7 6 5 6 6 7 7 7 9 8 7 4
1 1 2 3 4 3 2 5 6 5 7 4 3 5 15 20 21 19 17 17 16 13 9 8 7 15 18 16 16 17 17 10 6 7 6 5 4 6 5 5 6 7 7 8 10 10 9 6 3
2 3 3 5 9 6 3 5 5 5 7 8 9 13 17 19 19 18 17 16 17 16 12 11 10 9 13 11 9 7 9 12 11 9 7 5 4 3 6 6 6 5 6 7 7 6 5 3 3
4 7 6 6 6 6 6 3 5 12 7 3 7 17 20 21 21 19 17 17 17 17 15 13 11 11 9 8 6 6 7 7 7 7 6 5 5 5 5 5 4 4 5 6 6 5 2 3 2
3 8 8 9 8 8 5 10 7 9 8 6 15 18 18 18 18 18 16 15 16 16 16 14 12 10 9 8 7 6 6 7 8 8 6 6 6 6 6 4 3 3 4 6 6 5 3 4 3
7 12 14 5 5 4 7 6 4 3 9 12 16 18 17 17 18 16 15 15 16 14 15 14 13 10 9 8 8 7 7 7 7 7 7 8 6 6 5 3 4 3 5 6 4 4 4 5 4
7 7 7 4 2 4 5 9 13 7 13 14 15 16 17 17 16 18 17 18 16 14 13 15 14 11 11 11 10 8 7 7 9 8 8 7 7 5 4 4 3 3 3 3 2 2 3 4 6
4 2 12 8 1 1 4 9 5 10 15 15 15 16 16 17 18 16 16 16 15 14 14 15 14 14 13 12 10 8 8 8 7 6 5 5 3 4 4 5 4 2 1 2 1 2 3 5 6
6 11 17 10 3 2 8 17 2 11 15 15 16 16 15 14 16 17 17 17 15 16 15 15 14 13 14 12 9 7 8 9 8 4 3 3 4 4 6 4 2 2 2 2 1 2 3 4 5
12 14 16 15 7 9 14 26 13 11 15 17 17 16 15 17 20 18 18 16 15 15 15 13 12 12 13 10 8 7 5 7 10 7 5 5 5 5 5 3 3 3 4 2 1 1 1 2 4
10 11 15 25 10 9 11 20 19 14 17 18 18 17 18 21 16 16 17 16 15 14 15 16 13 13 14 11 10 10 10 8 6 6 6 5 5 5 5 4 2 5 4 3 5 2 0 1 2
10 14 14 10 4 5 12 24 14 7 19 20 19 18 21 16 15 16 18 18 18 17 17 17 16 16 15 12 11 7 10 9 8 7 6 7 6 6 6 4 3 4 4 4 6 4 1 2 1
9 8 7 12 10 2 17 6 8 4 7 9 15 16 18 17 16 16 20 21 17 18 19 19 18 18 16 14 10 6 8 5 6 7 6 9 7 7 7 5 3 4 4 4 4 4 3 1 2
8 5 7 13 10 9 8 8 4 8 6 8 10 14 18 18 14 14 18 19 20 18 16 17 17 18 16 17 14 15 15 12 9 8 7 6 7 8 7 6 4 5 4 5 5 4 3 3 0
5 3 6 5 6 5 5 3 7 6 7 2 12 15 18 21 19 18 17 17 16 16 17 17 17 18 17 17 16 17 14 12 8 8 8 6 7 8 7 6 6 5 5 4 3 6 5 3 1
5 11 1 2 2 5 2 6 11 11 11 11 2 15 18 21 20 18 16 15 14 15 18 18 19 18 17 18 18 18 16 13 10 10 9 9 9 8 9 8 7 6 5 5 3 3 4 3 2
8 5 4 3 2 3 3 3 7 16 13 10 10 4 18 18 19 18 18 16 17 20 20 20 21 19 18 19 20 19 17 14 14 12 11 12 11 8 9 9 8 8 7 6 5 5 4 4 3
5 5 5 2 2 8 2 5 6 12 15 10 8 5 3 15 18 18 19 18 20 20 21 19 22 20 20 20 21 19 18 14 11 13 9 10 11 9 8 9 9 9 8 6 6 4 4 4 4
4 4 2 5 1 3 3 5 3 15 22 22 13 7 5 6 15 19 19 21 20 21 23 24 22 21 22 22 21 20 19 17 13 10 12 10 6 7 8 8 9 10 9 8 7 6 6 4 5
4 9 2 1 3 4 2 4 7 22 25 22 20 17 13 6 7 13 17 18 19 21 21 22 22 24 22 22 21 21 20 18 16 13 13 12 9 7 7 8 9 9 9 9 7 8 7 5 6
4 5 3 3 1 5 6 1 5 8 14 18 17 19 19 17 11 12 15 17 18 18 21 23 22 22 22 24 22 21 20 19 18 16 14 13 11 10 9 9 9 9 10 10 10 12 9 8 7
2 2 4 7 4 1 2 3 4 7 10 15 17 18 19 20 20 15 13 15 18 21 21 24 23 22 23 23 22 22 20 19 20 20 18 15 14 12 10 11 11 10 10 10 11 12 9 9 9
Wind_Direction
156 158 74 104 117 95 106 85 76 59 78 57 29 210 186 55 243 271 128 149 150 151 156 156 150 139 136 133 130 127 133 142 143 145 145 145 147 145 149 156 154 156 145 140 125 132 112 118 113
144 145 36 72 93 140 116 124 78 18 343 307 191 139 67 88 31 111 140 154 153 153 156 154 151 142 140 138 138 133 133 141 142 138 133 145 145 149 154 154 157 160 156 156 167 156 149 152 141
154 107 249 75 82 108 118 143 58 15 62 251 126 53 40 25 36 149 129 151 153 155 159 158 149 142 133 139 137 132 136 144 157 145 145 166 169 167 164 166 161 165 170 174 170 169 170 168 147
16 103 64 57 48 64 62 33 4 23 29 85 131 90 99 326 153 164 147 154 157 157 159 160 152 137 137 156 136 105 121 125 172 168 149 203 190 172 168 167 161 161 169 169 175 180 180 177 159
135 79 56 59 33 35 256 244 156 6 295 217 170 142 94 102 138 143 157 162 162 161 162 162 155 152 162 148 137 118 123 274 193 190 181 191 169 129 184 165 163 160 168 167 178 185 186 179 180
35 7 45 40 9 338 253 208 212 244 180 176 162 140 122 138 151 156 159 165 166 162 164 163 165 166 144 122 137 132 183 213 206 190 183 174 160 127 191 173 161 166 164 178 188 198 202 199 205
32 35 64 3 356 343 178 167 207 167 162 169 147 138 130 175 175 161 162 162 166 166 168 170 169 147 126 143 156 192 218 230 216 195 174 166 156 159 204 166 165 180 183 188 204 209 217 228 233
71 54 72 217 328 318 169 185 172 200 120 134 170 194 186 183 162 155 161 159 167 171 173 181 162 151 154 172 183 199 216 233 199 185 171 167 170 175 180 165 180 190 197 205 216 227 235 240 248
122 352 329 242 194 287 219 221 161 148 153 180 170 176 116 147 153 152 156 161 168 165 168 180 163 157 160 170 185 197 222 214 184 177 172 169 171 182 197 179 189 200 218 227 241 250 252 245 230
228 297 296 226 229 294 227 221 190 167 166 187 176 98 135 151 160 161 172 174 179 177 171 166 159 154 159 170 184 191 181 185 202 160 145 153 204 196 205 198 213 217 231 242 250 261 270 244 257
177 281 287 278 238 237 252 223 220 209 207 213 205 159 159 163 170 173 182 184 184 180 179 172 169 162 151 149 147 146 164 179 180 165 163 158 192 182 214 203 214 232 247 255 258 269 272 267 296
281 263 261 280 217 196 227 216 213 219 244 193 180 161 163 172 177 182 185 187 187 186 190 184 182 166 150 159 139 155 166 165 161 186 176 177 197 192 214 217 232 242 245 254 262 269 299 306 299
227 316 310 286 249 231 239 238 233 223 205 166 146 157 171 180 187 190 191 193 191 191 195 192 185 179 169 175 164 165 176 179 177 186 184 193 205 199 215 223 240 259 251 258 273 283 309 325 2
309 301 304 307 261 247 232 244 211 201 163 158 161 163 174 187 194 194 198 202 201 196 202 193 196 195 187 185 188 179 173 175 179 191 186 197 212 205 229 243 258 264 255 254 266 316 321 347 1
310 327 339 25 279 252 224 249 236 188 169 164 172 173 179 192 199 202 203 208 207 202 199 197 196 198 191 192 190 190 179 174 178 183 186 194 212 221 258 245 266 265 239 220 255 284 329 4 342
342 28 352 342 314 293 197 286 262 188 174 176 179 183 191 195 205 209 209 212 206 203 194 191 187 186 189 191 184 188 175 178 173 167 194 214 223 236 238 266 270 246 231 166 192 305 356 355 2
35 333 329 328 282 261 213 285 252 181 195 189 188 194 196 206 208 210 210 211 208 199 191 196 191 190 185 180 179 186 179 176 170 192 197 229 245 242 248 254 278 147 145 121 209 72 12 5 19
315 322 318 317 311 282 275 268 260 197 201 202 195 197 203 211 216 209 211 209 209 199 187 183 191 182 177 169 170 180 186 188 179 206 217 225 227 223 234 243 257 194 150 162 193 74 113 344 16
290 295 305 305 310 282 288 284 287 229 204 206 202 207 216 219 217 215 213 207 203 200 188 181 175 173 166 165 177 190 193 191 204 227 248 253 227 230 223 215 251 194 182 176 171 151 153 54 329
288 297 315 311 312 287 320 310 328 239 216 206 208 216 220 217 211 217 213 206 202 198 193 184 183 175 174 179 184 189 182 197 197 208 238 235 237 222 222 205 205 192 215 161 171 161 154 63 158
282 273 315 318 320 81 331 310 359 28 229 217 226 227 211 212 207 214 210 204 201 199 193 184 185 179 178 183 178 167 172 154 187 206 212 220 228 236 215 193 205 214 233 188 182 190 184 207 152
290 207 305 325 337 337 3 313 357 339 309 200 205 201 201 203 211 211 208 202 198 200 193 182 182 183 181 182 184 187 189 185 197 192 192 221 206 198 194 196 192 207 234 235 184 192 190 172 132
288 343 344 338 325 311 1 328 356 330 9 295 206 204 206 204 208 206 205 210 207 190 188 182 182 187 181 183 189 185 191 193 183 177 184 205 188 185 179 192 191 198 196 183 192 159 194 188 231
278 298 348 67 327 295 24 336 14 8 346 344 19 208 202 205 213 213 204 199 196 185 181 181 183 189 187 185 193 193 190 185 186 183 189 187 191 182 182 184 203 204 213 222 198 190 194 198 191
205 213 272 279 250 349 9 302 7 3 347 320 318 264 211 204 205 205 202 194 192 191 187 181 184 189 189 196 197 199 201 195 190 186 192 184 190 200 189 186 195 210 224 221 216 201 207 220 220
171 208 210 250 336 326 262 333 26 19 28 357 342 343 213 210 209 208 209 201 198 192 190 184 187 189 190 198 204 203 203 205 200 191 182 192 201 204 188 196 201 214 222 226 226 231 236 235 228
144 206 40 129 96 266 330 292 270 5 18 21 14 8 18 214 222 221 208 202 202 196 194 194 190 190 194 197 203 208 204 208 203 198 208 218 217 208 196 196 214 221 223 231 235 231 226 230 242
238 141 190 216 224 282 227 287 317 351 353 0 13 14 8 350 250 223 222 221 208 202 198 195 197 193 194 199 205 210 211 211 210 207 204 209 205 201 187 198 207 221 230 231 232 241 235 230 245
165 190 88 128 283 263 277 210 4 348 355 355 4 3 357 345 330 248 224 215 211 211 201 203 200 195 194 200 204 208 215 214 213 216 217 213 214 207 203 193 194 218 234 235 230 231 233 231 238
232 163 187 242 224 182 282 236 82 45 22 13 9 7 2 359 350 317 239 210 204 202 205 208 203 203 201 198 203 207 209 214 219 219 217 216 218 212 207 196 189 206 223 233 229 233 225 233 245